Date String (YYYY-MM-DD hh:mm:ss) UTC,Instrument flags,absolute air pressure of the measurement (hPa),sample flow rate (lpm),inlet stack bypass flow (lpm),air temperature of the measurement (°C),ambient temperature measured by the external sensor (°C),aerosol sample conditioner tube jacket temperature (°C),OPC LED temperature (°C),internal box temperature (°C),relative humidity of the measurement (%),span deviation,mass concentration of particles derived from Lorenz-Mie calculation of OPC scattering (μg/m³),mass concentration of particles derived from Lorenz-Mie calculation of OPC scattering (μg/m³),mass concentration of particles derived from Lorenz-Mie calculation of OPC scattering (μg/m³)
DateTimeUTC,F1_M11,P_M11,Q1_M11,Q2_M11,T1_M11,T2_M11,T3_M11,T4_M11,T5_M11,U1_M11,ZSPAN_M11,X0_M11,X2_M11,X1_M11
2023-06-24 18:00:00,SystemResetWarning,0830.0,5.00,000.00,029.2,026.7,000.0,037.6,030.8,11.0,0000.0,0010.03,0004.64,0003.80
2023-06-24 18:01:00,SystemResetWarning,0830.1,5.00,000.00,029.2,024.7,000.0,037.5,030.6,10.8,0000.0,0010.02,0004.57,0003.80
2023-06-24 18:02:00,SystemResetWarning,0830.1,5.01,000.00,029.1,024.3,000.0,037.5,030.6,10.4,0000.0,0009.93,0004.54,0003.79
2023-06-24 18:03:00,SystemResetWarning,0830.0,5.00,000.00,029.0,024.7,000.0,037.4,030.3,10.9,0000.0,0010.27,0004.56,0003.80
2023-06-24 18:04:00,SystemResetWarning,0830.0,4.99,000.00,028.9,025.1,000.0,037.5,030.2,10.9,0000.0,0010.44,0004.58,0003.80
2023-06-24 18:05:00,SystemResetWarning,0830.0,5.00,000.00,028.9,025.6,000.0,037.5,030.2,11.1,0000.0,0010.49,0004.62,0003.81
2023-06-24 18:06:00,SystemResetWarning,0830.0,5.00,000.00,028.9,026.0,000.0,037.5,030.3,10.7,0000.0,0011.42,0004.68,0003.81
2023-06-24 18:07:00,SystemResetWarning,0830.0,5.00,000.00,028.9,026.4,000.0,037.5,030.4,10.7,0000.0,0011.13,0004.67,0003.82
2023-06-24 18:08:00,SystemResetWarning,0830.0,4.99,000.00,028.9,026.7,000.0,037.5,030.4,11.2,0000.0,0011.10,0004.66,0003.81
2023-06-24 18:09:00,SystemResetWarning,0830.1,4.99,000.00,028.9,026.9,000.0,037.5,030.5,10.8,0000.0,0011.51,0004.71,0003.82
2023-06-24 18:10:00,SystemResetWarning,0830.0,5.01,000.00,029.0,027.2,000.0,037.5,030.5,10.3,0000.0,0011.63,0004.70,0003.82
2023-06-24 18:11:00,SystemResetWarning,0830.1,5.01,000.00,029.0,027.3,000.0,037.5,030.6,10.1,0000.0,0011.57,0004.72,0003.83
2023-06-24 18:12:00,SystemResetWarning,0830.1,5.00,000.00,029.0,027.5,000.0,037.5,030.6,9.9,0000.0,0010.99,0004.76,0003.84
2023-06-24 18:13:00,SystemResetWarning,0830.1,5.00,000.00,029.0,027.6,000.0,037.5,030.7,10.1,0000.0,0010.97,0004.76,0003.83
2023-06-24 18:14:00,SystemResetWarning,0830.1,5.00,000.00,029.1,027.4,000.0,037.5,030.8,10.6,0000.0,0011.01,0004.76,0003.84
2023-06-24 18:15:00,SystemResetWarning,0830.1,4.99,000.00,029.1,025.6,000.0,037.5,030.8,10.9,0000.0,0011.10,0004.79,0003.85
2023-06-24 18:16:00,SystemResetWarning,0830.0,5.01,000.00,029.1,025.2,000.0,037.4,030.8,10.7,0000.0,0011.20,0004.78,0003.85
2023-06-24 18:17:00,SystemResetWarning,0830.1,5.00,000.00,029.1,025.5,000.0,037.4,030.5,10.5,0000.0,0010.39,0004.78,0003.85
2023-06-24 18:18:00,SystemResetWarning,0830.1,4.99,000.00,029.0,025.9,000.0,037.4,030.4,11.0,0000.0,0010.59,0004.78,0003.85
2023-06-24 18:19:00,SystemResetWarning,0830.0,5.00,000.00,029.0,026.2,000.0,037.5,030.4,10.6,0000.0,0010.95,0004.82,0003.85
2023-06-24 18:20:00,SystemResetWarning,0830.0,5.00,000.00,029.0,026.6,000.0,037.5,030.5,10.9,0000.0,0010.70,0004.81,0003.84
2023-06-24 18:21:00,SystemResetWarning,0830.1,5.00,000.00,029.0,026.9,000.0,037.5,030.5,10.4,0000.0,0010.41,0004.79,0003.83
2023-06-24 18:22:00,SystemResetWarning,0830.1,5.00,000.00,029.0,027.1,000.0,037.5,030.6,10.8,0000.0,0011.81,0004.83,0003.83
2023-06-24 18:23:00,SystemResetWarning,0830.2,5.00,000.00,029.0,027.3,000.0,037.5,030.6,9.7,0000.0,0012.50,0004.80,0003.83
2023-06-24 18:24:00,SystemResetWarning,0830.2,5.00,000.00,029.1,027.5,000.0,037.6,030.7,9.4,0000.0,0012.50,0004.78,0003.82
2023-06-24 18:25:00,SystemResetWarning,0830.1,5.00,000.00,029.1,027.5,000.0,037.6,030.8,10.1,0000.0,0012.28,0004.77,0003.80
2023-06-24 18:26:00,SystemResetWarning,0830.1,4.98,000.00,029.1,025.8,000.0,037.5,030.8,10.5,0000.0,0012.73,0004.76,0003.79
2023-06-24 18:27:00,SystemResetWarning,0830.1,5.01,000.00,029.1,024.1,000.0,037.4,030.6,11.0,0000.0,0012.82,0004.79,0003.80
2023-06-24 18:28:00,SystemResetWarning,0830.0,5.01,000.00,029.1,024.4,000.0,037.4,030.5,11.5,0000.0,0013.04,0004.76,0003.80
2023-06-24 18:29:00,SystemResetWarning,0830.1,5.00,000.00,029.0,024.8,000.0,037.4,030.2,11.5,0000.0,0012.59,0004.70,0003.80
2023-06-24 18:30:00,SystemResetWarning,0830.1,5.00,000.00,028.9,025.3,000.0,037.4,030.2,11.7,0000.0,0012.41,0004.69,0003.80
2023-06-24 18:31:00,SystemResetWarning,0830.1,5.01,000.00,028.9,025.7,000.0,037.4,030.2,11.8,0000.0,0012.31,0004.69,0003.80
2023-06-24 18:32:00,SystemResetWarning,0830.0,5.00,000.00,028.9,026.2,000.0,037.4,030.3,11.0,0000.0,0012.70,0004.71,0003.81
2023-06-24 18:33:00,SystemResetWarning,0830.1,5.00,000.00,028.9,026.5,000.0,037.4,030.4,10.7,0000.0,0012.11,0004.67,0003.81
2023-06-24 18:34:00,SystemResetWarning,0830.2,5.00,000.00,028.9,026.8,000.0,037.4,030.4,11.0,0000.0,0011.18,0004.65,0003.80
2023-06-24 18:35:00,SystemResetWarning,0830.2,5.00,000.00,028.9,027.0,000.0,037.4,030.4,10.5,0000.0,0011.45,0004.68,0003.82
2023-06-24 18:36:00,SystemResetWarning,0830.2,5.00,000.00,029.0,027.2,000.0,037.5,030.5,12.0,0000.0,0011.83,0004.66,0003.83
2023-06-24 18:37:00,SystemResetWarning,0830.2,5.00,000.00,029.0,027.4,000.0,037.5,030.6,12.2,0000.0,0011.34,0004.64,0003.83
2023-06-24 18:38:00,SystemResetWarning,0830.2,5.00,000.00,029.0,027.6,000.0,037.5,030.6,12.6,0000.0,0010.92,0004.62,0003.82
2023-06-24 18:39:00,SystemResetWarning,0830.3,5.00,000.00,029.1,027.7,000.0,037.5,030.7,11.2,0000.0,0010.78,0004.65,0003.82
2023-06-24 18:40:00,SystemResetWarning,0830.3,5.00,000.00,029.1,027.6,000.0,037.5,030.8,12.3,0000.0,0011.44,0004.65,0003.82
2023-06-24 18:41:00,SystemResetWarning,0830.3,4.99,000.00,029.1,025.8,000.0,037.5,030.7,11.7,0000.0,0011.35,0004.62,0003.82
2023-06-24 18:42:00,SystemResetWarning,0830.3,5.00,000.00,029.0,024.3,000.0,037.4,030.5,12.9,0000.0,0011.53,0004.60,0003.82
2023-06-24 18:43:00,SystemResetWarning,0830.2,5.01,000.00,029.0,024.5,000.0,037.4,030.5,12.7,0000.0,0011.31,0004.60,0003.81
2023-06-24 18:44:00,SystemResetWarning,0830.2,5.02,000.00,028.9,024.9,000.0,037.4,030.2,12.4,0000.0,0010.90,0004.61,0003.81
2023-06-24 18:45:00,SystemResetWarning,0830.3,4.98,000.00,028.9,025.4,000.0,037.4,030.2,11.8,0000.0,0010.96,0004.62,0003.81
2023-06-24 18:46:00,SystemResetWarning,0830.3,5.00,000.00,028.9,025.8,000.0,037.4,030.2,12.3,0000.0,0010.57,0004.59,0003.79
2023-06-24 18:47:00,SystemResetWarning,0830.3,5.00,000.00,028.9,026.2,000.0,037.4,030.3,12.9,0000.0,0010.06,0004.58,0003.79
2023-06-24 18:48:00,SystemResetWarning,0830.2,5.00,000.00,028.9,026.6,000.0,037.4,030.3,12.8,0000.0,0009.87,0004.58,0003.80
2023-06-24 18:49:00,SystemResetWarning,0830.3,5.00,000.00,028.9,026.9,000.0,037.4,030.4,12.5,0000.0,0009.67,0004.54,0003.80
2023-06-24 18:50:00,SystemResetWarning,0830.3,5.00,000.00,028.9,027.1,000.0,037.4,030.5,13.0,0000.0,0009.70,0004.45,0003.80
2023-06-24 18:51:00,SystemResetWarning,0830.4,5.00,000.00,029.0,027.3,000.0,037.4,030.5,13.4,0000.0,0009.31,0004.48,0003.80
2023-06-24 18:52:00,SystemResetWarning,0830.4,5.00,000.00,029.0,027.5,000.0,037.5,030.6,13.1,0000.0,0009.59,0004.54,0003.80
2023-06-24 18:53:00,SystemResetWarning,0830.4,5.00,000.00,029.0,027.6,000.0,037.5,030.7,12.3,0000.0,0010.00,0004.55,0003.80
2023-06-24 18:54:00,SystemResetWarning,0830.4,5.00,000.00,029.1,027.8,000.0,037.5,030.7,12.4,0000.0,0009.98,0004.51,0003.80
2023-06-24 18:55:00,SystemResetWarning,0830.5,4.99,000.00,029.1,027.9,000.0,037.5,030.8,13.7,0000.0,0009.77,0004.52,0003.80
2023-06-24 18:56:00,SystemResetWarning,0830.4,4.99,000.00,029.2,027.0,000.0,037.5,030.8,13.7,0000.0,0010.05,0004.53,0003.81
2023-06-24 18:57:00,SystemResetWarning,0830.5,5.00,000.00,029.1,025.5,000.0,037.5,030.8,13.7,0000.0,0010.00,0004.52,0003.82
2023-06-24 18:58:00,SystemResetWarning,0830.4,5.01,000.00,029.1,025.6,000.0,037.4,030.8,15.9,0000.0,0010.41,0004.54,0003.83
2023-06-24 18:59:00,SystemResetWarning,0830.4,5.01,000.00,029.1,025.9,000.0,037.5,030.5,16.1,0000.0,0010.61,0004.57,0003.84
